User: anonymous   Login
Location: Buttermere
(51.3333°N, 1.5167°W)
Time: 16:27:50
(UTC+00:00)
Language:

Okean 1-7 Rocket - Orbit

View from above orbital plane
View from above orbital plane
View from above satellite
View from above satellite

Ground track
Ground track

The orbit data is extracted from the following two-line orbital elements,

1 23318U 94066B   21173.63803574  .00000070  00000-0  63159-5 0  9998
2 23318  82.5417 248.5380 0025123 115.1957 245.1865 14.78911115439362
Epoch (UTC): 22 June 2021 15:18:46
Eccentricity: 0.0025123
inclination: 82.5417°
perigee height: 615 km
apogee height: 650 km
right ascension of ascending node: 248.5380°
argument of perigee: 115.1957°
revolutions per day: 14.78911115
mean anomaly at epoch: 245.1865°
orbit number at epoch: 43936

The dashed part of the orbit path shows where the satellite is in the earth's shadow,  

DLR